THA600 VTBS-VHHX

Flight info

Callsign THA600
Flight time 2h 11m
Altitude 37000
Route SELKA1J SELKA A1 SANOT Y15 GUROK A202 VILAO/K0907F370 A202 ASSAD/K0906S1130 A202 SIKOU/N0489F371
Aircraft B77W/H-SDE1E2E3FGHIJ2J3J4J5M1RWXY/LB1D1

Departure

Time 2026-05-06 04:08
Airport Suvarnabhumi Airport (VTBS)

Arrival

Time 2026-05-06 06:19
Airport Hong Kong International Airport Kai Tak (VHHX)
Time Latitude Longitude Altitude Speed Heading
2026-05-06 03:39 13.69031 100.75202 18 ft 0 kts 14°
2026-05-06 03:54 13.69020 100.75199 18 ft 2 kts 17°
2026-05-06 03:54 13.69004 100.75194 22 ft 2 kts 19°
2026-05-06 03:54 13.68989 100.75188 22 ft 2 kts 25°
2026-05-06 03:54 13.68975 100.75180 21 ft 2 kts 39°
2026-05-06 03:55 13.68964 100.75167 21 ft 2 kts 79°
2026-05-06 03:55 13.68964 100.75152 22 ft 1 kts 103°
2026-05-06 03:55 13.68965 100.75149 22 ft 0 kts 104°
2026-05-06 03:57 13.68965 100.75150 22 ft 0 kts 104°
2026-05-06 03:58 13.68961 100.75165 22 ft 5 kts 104°
2026-05-06 03:58 13.68934 100.75206 18 ft 10 kts 156°
2026-05-06 03:58 13.68865 100.75202 18 ft 10 kts 196°
2026-05-06 03:58 13.68798 100.75183 18 ft 10 kts 194°
2026-05-06 03:59 13.68730 100.75165 18 ft 10 kts 194°
2026-05-06 03:59 13.68661 100.75148 18 ft 10 kts 193°
2026-05-06 03:59 13.68593 100.75131 18 ft 10 kts 193°
2026-05-06 03:59 13.68524 100.75114 18 ft 10 kts 194°
2026-05-06 04:00 13.68457 100.75116 18 ft 10 kts 145°
2026-05-06 04:00 13.68432 100.75183 18 ft 10 kts 105°
2026-05-06 04:00 13.68414 100.75254 18 ft 10 kts 104°
2026-05-06 04:00 13.68397 100.75326 18 ft 10 kts 104°
2026-05-06 04:01 13.68379 100.75397 18 ft 10 kts 104°
2026-05-06 04:01 13.68360 100.75469 18 ft 10 kts 104°
2026-05-06 04:01 13.68342 100.75540 18 ft 10 kts 104°
2026-05-06 04:01 13.68324 100.75612 18 ft 10 kts 104°
2026-05-06 04:02 13.68329 100.75681 18 ft 10 kts 47°
2026-05-06 04:02 13.68396 100.75710 18 ft 11 kts 15°
2026-05-06 04:02 13.68425 100.75718 18 ft 11 kts 15°
2026-05-06 04:02 13.68462 100.75728 18 ft 11 kts 14°
2026-05-06 04:03 13.68534 100.75747 18 ft 11 kts 14°
2026-05-06 04:03 13.68606 100.75765 18 ft 11 kts 14°
2026-05-06 04:03 13.68673 100.75783 18 ft 11 kts 14°
2026-05-06 04:03 13.68703 100.75790 18 ft 11 kts 14°
2026-05-06 04:04 13.68776 100.75810 18 ft 11 kts 14°
2026-05-06 04:04 13.68849 100.75829 18 ft 11 kts 14°
2026-05-06 04:04 13.68922 100.75848 18 ft 11 kts 14°
2026-05-06 04:04 13.68996 100.75868 18 ft 13 kts 14°
2026-05-06 04:05 13.69102 100.75896 18 ft 10 kts 14°
2026-05-06 04:05 13.69167 100.75913 18 ft 10 kts 14°
2026-05-06 04:05 13.69201 100.75968 17 ft 10 kts 90°
2026-05-06 04:05 13.69199 100.75982 17 ft 0 kts 99°
2026-05-06 04:06 13.69197 100.75994 17 ft 8 kts 99°
2026-05-06 04:06 13.69142 100.76082 17 ft 13 kts 150°
2026-05-06 04:06 13.69074 100.76078 17 ft 0 kts 194°
2026-05-06 04:07 13.68885 100.76028 20 ft 69 kts 194°
2026-05-06 04:07 13.68165 100.75840 18 ft 143 kts 194°
2026-05-06 04:08 13.67027 100.75541 196 ft 182 kts 193°
2026-05-06 04:08 13.65795 100.75229 934 ft 184 kts 193°
2026-05-06 04:08 13.64520 100.75017 1642 ft 189 kts 176°
2026-05-06 04:08 13.63155 100.75130 2041 ft 210 kts 176°
2026-05-06 04:09 13.61615 100.75194 2304 ft 239 kts 178°
2026-05-06 04:09 13.59902 100.75316 2811 ft 253 kts 166°
2026-05-06 04:09 13.58354 100.76195 3447 ft 260 kts 132°
2026-05-06 04:09 13.57509 100.77818 4332 ft 262 kts 99°
2026-05-06 04:10 13.57623 100.79677 5166 ft 264 kts 76°
2026-05-06 04:10 13.57765 100.81559 5758 ft 271 kts 104°
2026-05-06 04:10 13.56969 100.83313 6484 ft 272 kts 117°
2026-05-06 04:10 13.56517 100.85172 7037 ft 280 kts 85°
2026-05-06 04:11 13.56863 100.87124 7753 ft 280 kts 81°
2026-05-06 04:11 13.57096 100.89134 8506 ft 285 kts 86°
2026-05-06 04:11 13.57192 100.91173 9361 ft 287 kts 88°
2026-05-06 04:11 13.57228 100.93241 10133 ft 291 kts 89°
2026-05-06 04:12 13.57232 100.95376 10620 ft 309 kts 90°
2026-05-06 04:12 13.57219 100.97682 10794 ft 337 kts 90°
2026-05-06 04:12 13.57200 101.00149 11001 ft 361 kts 90°
2026-05-06 04:12 13.57572 101.02741 11253 ft 376 kts 70°
2026-05-06 04:13 13.58902 101.05115 11969 ft 384 kts 50°
2026-05-06 04:13 13.60684 101.07130 12624 ft 391 kts 47°
2026-05-06 04:13 13.62563 101.09179 13516 ft 395 kts 47°
2026-05-06 04:13 13.64463 101.11237 14369 ft 398 kts 47°
2026-05-06 04:14 13.66381 101.13323 15096 ft 404 kts 47°
2026-05-06 04:14 13.68320 101.15443 15834 ft 409 kts 47°
2026-05-06 04:14 13.70270 101.17589 16603 ft 413 kts 47°
2026-05-06 04:14 13.72241 101.19768 17305 ft 419 kts 47°
2026-05-06 04:15 13.74228 101.21971 18010 ft 424 kts 47°
2026-05-06 04:15 13.76243 101.24209 18663 ft 428 kts 47°
2026-05-06 04:15 13.78247 101.26439 19285 ft 431 kts 47°
2026-05-06 04:15 13.80294 101.28717 19857 ft 437 kts 47°
2026-05-06 04:16 13.82362 101.31019 20459 ft 441 kts 47°
2026-05-06 04:16 13.84454 101.33349 21063 ft 445 kts 47°
2026-05-06 04:16 13.86563 101.35697 21638 ft 449 kts 47°
2026-05-06 04:16 13.88692 101.38070 22181 ft 454 kts 47°
2026-05-06 04:17 13.90849 101.40473 22752 ft 458 kts 47°
2026-05-06 04:17 13.93023 101.42896 23291 ft 463 kts 47°
2026-05-06 04:17 13.95212 101.45337 23761 ft 467 kts 47°
2026-05-06 04:17 13.97393 101.47770 24208 ft 470 kts 47°
2026-05-06 04:18 13.99616 101.50250 24701 ft 473 kts 47°
2026-05-06 04:18 14.01858 101.52752 25138 ft 476 kts 47°
2026-05-06 04:18 14.04107 101.55262 25596 ft 479 kts 47°
2026-05-06 04:18 14.06372 101.57792 26048 ft 482 kts 47°
2026-05-06 04:19 14.08659 101.60346 26463 ft 486 kts 47°
2026-05-06 04:19 14.10953 101.62909 26861 ft 489 kts 47°
2026-05-06 04:19 14.13235 101.65460 27276 ft 492 kts 47°
2026-05-06 04:19 14.15561 101.68061 27685 ft 495 kts 47°
2026-05-06 04:20 14.17897 101.70674 28053 ft 498 kts 47°
2026-05-06 04:20 14.20253 101.73310 28415 ft 501 kts 47°
2026-05-06 04:20 14.22619 101.75958 28763 ft 504 kts 47°
2026-05-06 04:20 14.25002 101.78627 29104 ft 507 kts 47°
2026-05-06 04:21 14.27391 101.81303 29443 ft 509 kts 47°
2026-05-06 04:21 14.29798 101.83999 29772 ft 511 kts 47°
2026-05-06 04:21 14.32197 101.86692 30150 ft 511 kts 48°
2026-05-06 04:21 14.34307 101.89570 30486 ft 511 kts 61°
2026-05-06 04:22 14.35663 101.92933 30815 ft 507 kts 71°
2026-05-06 04:22 14.36764 101.96392 31118 ft 509 kts 72°
2026-05-06 04:22 14.37857 101.99871 31485 ft 508 kts 72°
2026-05-06 04:23 14.40088 102.06769 32314 ft 506 kts 71°
2026-05-06 04:23 14.41233 102.10197 32729 ft 505 kts 71°
2026-05-06 04:23 14.42194 102.13038 33048 ft 505 kts 70°
2026-05-06 04:24 14.43292 102.16267 33465 ft 504 kts 70°
2026-05-06 04:24 14.44452 102.19674 33898 ft 502 kts 70°
2026-05-06 04:24 14.45608 102.23072 34273 ft 501 kts 70°
2026-05-06 04:24 14.46760 102.26464 34645 ft 500 kts 70°
2026-05-06 04:25 14.47906 102.29844 35004 ft 499 kts 70°
2026-05-06 04:25 14.49045 102.33212 35353 ft 498 kts 70°
2026-05-06 04:25 14.50187 102.36590 35718 ft 497 kts 70°
2026-05-06 04:25 14.51309 102.39911 36030 ft 497 kts 70°
2026-05-06 04:26 14.52443 102.43269 36362 ft 496 kts 70°
2026-05-06 04:26 14.53576 102.46624 36687 ft 495 kts 70°
2026-05-06 04:26 14.54710 102.49984 36880 ft 498 kts 70°
2026-05-06 04:27 14.56998 102.56770 36934 ft 501 kts 70°
2026-05-06 04:27 14.59271 102.63520 36931 ft 495 kts 70°
2026-05-06 04:28 14.61506 102.70165 36941 ft 492 kts 70°
2026-05-06 04:28 14.63746 102.76827 36937 ft 491 kts 70°
2026-05-06 04:29 14.65999 102.83501 36936 ft 492 kts 70°
2026-05-06 04:29 14.68257 102.90179 36939 ft 493 kts 70°
2026-05-06 04:30 14.70502 102.96835 36939 ft 495 kts 70°
2026-05-06 04:30 14.72768 103.03561 36942 ft 496 kts 70°
2026-05-06 04:31 14.75036 103.10303 36941 ft 497 kts 70°
2026-05-06 04:31 14.77304 103.17052 36934 ft 498 kts 70°
2026-05-06 04:32 14.79576 103.23820 36939 ft 498 kts 70°
2026-05-06 04:32 14.81828 103.30537 36930 ft 498 kts 70°
2026-05-06 04:33 14.84100 103.37314 36937 ft 498 kts 70°
2026-05-06 04:33 14.87086 103.43739 36942 ft 496 kts 58°
2026-05-06 04:34 14.91191 103.49464 36940 ft 495 kts 49°
2026-05-06 04:34 14.95688 103.54787 36937 ft 495 kts 48°
2026-05-06 04:35 15.00203 103.60162 36938 ft 496 kts 48°
2026-05-06 04:35 15.04686 103.65584 36940 ft 496 kts 49°
2026-05-06 04:36 15.09162 103.71014 36941 ft 496 kts 49°
2026-05-06 04:36 15.13778 103.76322 36937 ft 495 kts 40°
2026-05-06 04:37 15.19328 103.80403 36949 ft 493 kts 27°
2026-05-06 04:37 15.25580 103.83276 36945 ft 492 kts 21°
2026-05-06 04:38 15.31926 103.85962 36942 ft 493 kts 21°
2026-05-06 04:38 15.38256 103.88691 36940 ft 493 kts 21°
2026-05-06 04:39 15.44542 103.91448 36940 ft 494 kts 21°
2026-05-06 04:39 15.50866 103.94237 36942 ft 494 kts 21°
2026-05-06 04:40 15.57193 103.97027 36938 ft 494 kts 21°
2026-05-06 04:40 15.63520 103.99815 36934 ft 494 kts 21°
2026-05-06 04:41 15.69806 104.02587 36934 ft 494 kts 21°
2026-05-06 04:41 15.76138 104.05382 36938 ft 495 kts 21°
2026-05-06 04:42 15.82477 104.08181 36933 ft 495 kts 21°
2026-05-06 04:42 15.88811 104.10981 36933 ft 494 kts 21°
2026-05-06 04:43 15.95138 104.13779 36934 ft 494 kts 21°
2026-05-06 04:43 16.01411 104.16579 36927 ft 494 kts 24°
2026-05-06 04:44 16.07207 104.20428 36933 ft 497 kts 38°
2026-05-06 04:44 16.12115 104.25496 36935 ft 498 kts 47°
2026-05-06 04:45 16.16705 104.30892 36933 ft 499 kts 47°
2026-05-06 04:45 16.21317 104.36223 36940 ft 499 kts 46°
2026-05-06 04:46 16.25992 104.41559 36935 ft 499 kts 46°
2026-05-06 04:46 16.30652 104.46927 36935 ft 500 kts 47°
2026-05-06 04:47 16.35292 104.52333 36932 ft 501 kts 47°
2026-05-06 04:47 16.38624 104.56217 36938 ft 501 kts 46°
2026-05-06 04:48 16.43082 104.61408 36939 ft 502 kts 46°
2026-05-06 04:48 16.47738 104.66831 36940 ft 502 kts 46°
2026-05-06 04:49 16.52400 104.72264 36943 ft 503 kts 46°
2026-05-06 04:49 16.56940 104.77813 36941 ft 504 kts 52°
2026-05-06 04:50 16.60762 104.83892 36943 ft 505 kts 56°
2026-05-06 04:50 16.64508 104.90093 36937 ft 506 kts 56°
2026-05-06 04:51 16.68291 104.96282 36940 ft 506 kts 56°
2026-05-06 04:51 16.72098 105.02457 36933 ft 506 kts 56°
2026-05-06 04:52 16.75908 105.08635 36932 ft 506 kts 56°
2026-05-06 04:52 16.79689 105.14778 36924 ft 507 kts 56°
2026-05-06 04:53 16.83493 105.20968 36927 ft 507 kts 56°
2026-05-06 04:53 16.87252 105.27088 36928 ft 507 kts 56°
2026-05-06 04:54 16.91090 105.33353 36923 ft 507 kts 56°
2026-05-06 04:54 16.94865 105.39526 36924 ft 508 kts 56°
2026-05-06 04:55 16.98668 105.45750 36922 ft 508 kts 56°
2026-05-06 04:55 17.02461 105.51964 36926 ft 508 kts 56°
2026-05-06 04:56 17.06266 105.58200 36922 ft 508 kts 56°
2026-05-06 04:56 17.10046 105.64400 36921 ft 508 kts 56°
2026-05-06 04:57 17.13834 105.70621 36924 ft 508 kts 56°
2026-05-06 04:57 17.17627 105.76856 36920 ft 509 kts 56°
2026-05-06 04:58 17.21408 105.83078 36919 ft 509 kts 56°
2026-05-06 04:58 17.25216 105.89349 36934 ft 509 kts 55°
2026-05-06 04:59 17.28981 105.95556 36936 ft 509 kts 55°
2026-05-06 04:59 17.32768 106.01803 36934 ft 509 kts 55°
2026-05-06 05:00 17.36520 106.07998 36930 ft 508 kts 55°
2026-05-06 05:00 17.40359 106.14274 36932 ft 508 kts 55°
2026-05-06 05:01 17.44147 106.20414 36934 ft 507 kts 54°
2026-05-06 05:01 17.47934 106.26565 36919 ft 507 kts 54°
2026-05-06 05:02 17.51755 106.32790 36917 ft 508 kts 54°
2026-05-06 05:02 17.55603 106.39069 36916 ft 508 kts 54°
2026-05-06 05:03 17.59416 106.45296 36919 ft 508 kts 54°
2026-05-06 05:03 17.63211 106.51498 36921 ft 509 kts 54°
2026-05-06 05:04 17.67029 106.57744 36909 ft 509 kts 54°
2026-05-06 05:04 17.70841 106.63990 36914 ft 508 kts 54°
2026-05-06 05:05 17.74641 106.70236 36905 ft 508 kts 54°
2026-05-06 05:05 17.78407 106.76431 36910 ft 507 kts 54°
2026-05-06 05:06 17.82189 106.82659 36905 ft 506 kts 54°
2026-05-06 05:06 17.85968 106.88886 36905 ft 505 kts 54°
2026-05-06 05:07 17.89735 106.95090 36905 ft 504 kts 54°
2026-05-06 05:07 17.93508 107.01243 36906 ft 504 kts 54°
2026-05-06 05:08 17.97296 107.07418 36907 ft 503 kts 54°
2026-05-06 05:08 18.01062 107.13573 36904 ft 503 kts 54°
2026-05-06 05:09 18.04818 107.19724 36908 ft 503 kts 54°
2026-05-06 05:09 18.08324 107.25469 36907 ft 503 kts 54°
2026-05-06 05:10 18.12064 107.31623 36907 ft 503 kts 54°
2026-05-06 05:10 18.15832 107.37837 36910 ft 503 kts 54°
2026-05-06 05:11 18.19610 107.44071 36909 ft 503 kts 54°
2026-05-06 05:11 18.23315 107.50188 36907 ft 504 kts 54°
2026-05-06 05:12 18.27117 107.56472 36908 ft 504 kts 54°
2026-05-06 05:12 18.30848 107.62647 36907 ft 504 kts 54°
2026-05-06 05:13 18.34649 107.68795 36907 ft 502 kts 51°
2026-05-06 05:13 18.39020 107.74481 36916 ft 500 kts 46°
2026-05-06 05:14 18.43512 107.80083 36910 ft 500 kts 46°
2026-05-06 05:14 18.47996 107.85718 36913 ft 500 kts 47°
2026-05-06 05:15 18.52412 107.91327 36915 ft 500 kts 47°
2026-05-06 05:15 18.56836 107.96967 36915 ft 500 kts 47°
2026-05-06 05:16 18.61281 108.02638 36916 ft 500 kts 47°
2026-05-06 05:16 18.65677 108.08248 36913 ft 500 kts 47°
2026-05-06 05:17 18.70131 108.13936 36914 ft 500 kts 47°
2026-05-06 05:17 18.74573 108.19614 36913 ft 501 kts 47°
2026-05-06 05:18 18.78957 108.25224 36911 ft 501 kts 47°
2026-05-06 05:18 18.83393 108.30905 36907 ft 501 kts 47°
2026-05-06 05:19 18.87814 108.36573 36911 ft 501 kts 47°
2026-05-06 05:19 18.92221 108.42227 36911 ft 501 kts 47°
2026-05-06 05:20 18.96640 108.47901 36904 ft 500 kts 49°
2026-05-06 05:20 19.01063 108.53587 36905 ft 499 kts 49°
2026-05-06 05:21 19.05462 108.59248 36908 ft 499 kts 49°
2026-05-06 05:21 19.09857 108.64908 36914 ft 498 kts 49°
2026-05-06 05:22 19.14232 108.70546 36907 ft 499 kts 49°
2026-05-06 05:22 19.18623 108.76213 36904 ft 499 kts 49°
2026-05-06 05:23 19.23032 108.81908 36905 ft 499 kts 49°
2026-05-06 05:23 19.29607 108.90390 36899 ft 500 kts 49°
2026-05-06 05:24 19.34015 108.96064 36911 ft 500 kts 49°
2026-05-06 05:24 19.38430 109.01756 36905 ft 500 kts 49°
2026-05-06 05:25 19.42840 109.07451 36899 ft 500 kts 49°
2026-05-06 05:25 19.47215 109.13107 36905 ft 499 kts 49°
2026-05-06 05:26 19.51615 109.18799 36904 ft 499 kts 49°
2026-05-06 05:26 19.55991 109.24509 36899 ft 499 kts 49°
2026-05-06 05:27 19.60349 109.30249 36904 ft 499 kts 49°
2026-05-06 05:27 19.64683 109.35964 36903 ft 498 kts 49°
2026-05-06 05:28 19.68997 109.41650 36898 ft 498 kts 49°
2026-05-06 05:28 19.73334 109.47368 36896 ft 498 kts 49°
2026-05-06 05:29 19.77658 109.53073 36900 ft 498 kts 49°
2026-05-06 05:29 19.81995 109.58802 36903 ft 498 kts 49°
2026-05-06 05:30 19.86308 109.64506 36899 ft 498 kts 49°
2026-05-06 05:30 19.90650 109.70252 36903 ft 498 kts 49°
2026-05-06 05:31 19.94970 109.75976 36904 ft 498 kts 49°
2026-05-06 05:31 19.99313 109.81735 36897 ft 498 kts 49°
2026-05-06 05:32 20.03646 109.87487 36904 ft 498 kts 49°
2026-05-06 05:32 20.07981 109.93248 36907 ft 498 kts 49°
2026-05-06 05:33 20.12309 109.99004 36906 ft 498 kts 49°
2026-05-06 05:33 20.16605 110.04724 36907 ft 499 kts 49°
2026-05-06 05:34 20.20935 110.10495 36912 ft 499 kts 49°
2026-05-06 05:34 20.25262 110.16269 36910 ft 499 kts 49°
2026-05-06 05:35 20.29584 110.22040 36914 ft 499 kts 49°
2026-05-06 05:35 20.33914 110.27760 36909 ft 499 kts 48°
2026-05-06 05:36 20.38300 110.33484 36915 ft 499 kts 48°
2026-05-06 05:36 20.42675 110.39215 36921 ft 499 kts 48°
2026-05-06 05:37 20.47050 110.44966 36929 ft 499 kts 49°
2026-05-06 05:37 20.50812 110.51198 36933 ft 503 kts 60°
2026-05-06 05:38 20.53523 110.58073 36938 ft 506 kts 68°
2026-05-06 05:38 20.55832 110.65156 36920 ft 506 kts 69°
2026-05-06 05:39 20.58169 110.72251 36919 ft 507 kts 68°
2026-05-06 05:39 20.60317 110.78645 36916 ft 507 kts 68°
2026-05-06 05:40 20.62700 110.85726 36933 ft 507 kts 68°
2026-05-06 05:40 20.65077 110.92810 36925 ft 507 kts 68°
2026-05-06 05:41 20.67454 110.99847 36922 ft 507 kts 68°
2026-05-06 05:41 20.69847 111.06924 36925 ft 507 kts 68°
2026-05-06 05:42 20.71835 111.12820 36924 ft 507 kts 68°
2026-05-06 05:42 20.74220 111.19909 36928 ft 507 kts 68°
2026-05-06 05:43 20.76991 111.28162 36930 ft 508 kts 68°
2026-05-06 05:43 20.79374 111.35269 36930 ft 508 kts 68°
2026-05-06 05:44 20.81349 111.41170 36927 ft 508 kts 68°
2026-05-06 05:44 20.83727 111.48279 36930 ft 508 kts 68°
2026-05-06 05:45 20.86049 111.56707 36935 ft 509 kts 75°
2026-05-06 05:45 20.87553 111.64101 36932 ft 510 kts 76°
2026-05-06 05:46 20.88804 111.70260 36932 ft 509 kts 76°
2026-05-06 05:46 20.90652 111.78889 36933 ft 509 kts 75°
2026-05-06 05:47 20.92001 111.85023 36929 ft 509 kts 75°
2026-05-06 05:47 20.93883 111.93583 36932 ft 509 kts 75°
2026-05-06 05:48 20.95224 111.99713 36932 ft 509 kts 75°
2026-05-06 05:48 20.96833 112.07096 36928 ft 510 kts 75°
2026-05-06 05:49 20.98438 112.14483 36928 ft 510 kts 75°
2026-05-06 05:49 21.00299 112.23064 36935 ft 510 kts 75°
2026-05-06 05:50 21.01641 112.29267 36931 ft 510 kts 75°
2026-05-06 05:50 21.03227 112.36613 36931 ft 510 kts 75°
2026-05-06 05:51 21.04822 112.44015 36933 ft 510 kts 75°
2026-05-06 05:51 21.06413 112.51418 36935 ft 511 kts 76°
2026-05-06 05:52 21.08004 112.58832 36932 ft 511 kts 76°
2026-05-06 05:52 21.09579 112.66193 36930 ft 511 kts 76°
2026-05-06 05:53 21.11166 112.73623 36932 ft 511 kts 76°
2026-05-06 05:53 21.12746 112.81038 36935 ft 511 kts 76°
2026-05-06 05:54 21.14325 112.88470 36937 ft 511 kts 76°
2026-05-06 05:54 21.15882 112.95809 36713 ft 503 kts 76°
2026-05-06 05:55 21.16655 112.99465 36234 ft 505 kts 76°
2026-05-06 05:55 21.17432 113.03136 35578 ft 507 kts 76°
2026-05-06 05:55 21.18212 113.06823 34942 ft 506 kts 76°
2026-05-06 05:55 21.18990 113.10511 34181 ft 509 kts 76°
2026-05-06 05:56 21.19771 113.14214 33336 ft 512 kts 76°
2026-05-06 05:56 21.20556 113.17942 32479 ft 513 kts 76°
2026-05-06 05:56 21.21333 113.21635 31645 ft 514 kts 76°
2026-05-06 05:56 21.22126 113.25413 30849 ft 515 kts 76°
2026-05-06 05:57 21.22901 113.29103 30060 ft 515 kts 77°
2026-05-06 05:57 21.23686 113.32851 29159 ft 514 kts 77°
2026-05-06 05:57 21.24468 113.36589 28255 ft 513 kts 77°
2026-05-06 05:57 21.25246 113.40313 27397 ft 512 kts 77°
2026-05-06 05:58 21.26023 113.44032 26560 ft 510 kts 77°
2026-05-06 05:58 21.26796 113.47740 25745 ft 509 kts 77°
2026-05-06 05:58 21.27567 113.51437 24956 ft 507 kts 77°
2026-05-06 05:58 21.28362 113.55106 24165 ft 500 kts 73°
2026-05-06 05:59 21.29752 113.58500 23365 ft 497 kts 56°
2026-05-06 05:59 21.31920 113.61274 22516 ft 491 kts 41°
2026-05-06 05:59 21.34625 113.63460 21647 ft 485 kts 28°
2026-05-06 05:59 21.37676 113.64901 20831 ft 479 kts 18°
2026-05-06 06:00 21.40802 113.66123 20087 ft 471 kts 19°
2026-05-06 06:00 21.43779 113.67374 19260 ft 449 kts 20°
2026-05-06 06:00 21.46626 113.68631 18291 ft 435 kts 21°
2026-05-06 06:00 21.49384 113.69885 17468 ft 428 kts 21°
2026-05-06 06:01 21.52106 113.71131 16877 ft 425 kts 21°
2026-05-06 06:01 21.54819 113.72372 16282 ft 422 kts 21°
2026-05-06 06:01 21.57475 113.73583 15705 ft 419 kts 21°
2026-05-06 06:01 21.60141 113.74796 15130 ft 416 kts 21°
2026-05-06 06:02 21.62788 113.76000 14839 ft 405 kts 21°
2026-05-06 06:02 21.65345 113.77163 14654 ft 393 kts 21°
2026-05-06 06:02 21.67821 113.78289 14492 ft 381 kts 20°
2026-05-06 06:02 21.70223 113.79382 14327 ft 369 kts 20°
2026-05-06 06:03 21.72550 113.80441 14179 ft 359 kts 20°
2026-05-06 06:03 21.74819 113.81473 14028 ft 349 kts 20°
2026-05-06 06:03 21.77028 113.82479 13859 ft 341 kts 20°
2026-05-06 06:03 21.79161 113.83452 13537 ft 326 kts 20°
2026-05-06 06:04 21.81215 113.84388 13233 ft 318 kts 20°
2026-05-06 06:04 21.83248 113.85313 12942 ft 316 kts 20°
2026-05-06 06:04 21.85263 113.86230 12665 ft 314 kts 20°
2026-05-06 06:04 21.87244 113.87132 12399 ft 312 kts 20°
2026-05-06 06:05 21.89241 113.88043 12127 ft 310 kts 20°
2026-05-06 06:05 21.91222 113.88946 11863 ft 309 kts 20°
2026-05-06 06:05 21.93201 113.89849 11591 ft 307 kts 20°
2026-05-06 06:05 21.95164 113.90745 11316 ft 306 kts 20°
2026-05-06 06:06 21.97122 113.91639 11071 ft 305 kts 20°
2026-05-06 06:06 21.99079 113.92533 10813 ft 305 kts 20°
2026-05-06 06:06 22.01025 113.93422 10539 ft 305 kts 20°
2026-05-06 06:06 22.02988 113.94319 10247 ft 306 kts 20°
2026-05-06 06:07 22.04909 113.95198 9984 ft 303 kts 20°
2026-05-06 06:07 22.06804 113.96066 9715 ft 300 kts 20°
2026-05-06 06:07 22.08746 113.96954 9433 ft 297 kts 21°
2026-05-06 06:07 22.10628 113.97816 9168 ft 293 kts 21°
2026-05-06 06:08 22.12492 113.98669 8917 ft 290 kts 21°
2026-05-06 06:08 22.14339 113.99515 8674 ft 287 kts 21°
2026-05-06 06:08 22.16170 114.00331 8420 ft 281 kts 15°
2026-05-06 06:08 22.18068 114.00517 8182 ft 273 kts 347°
2026-05-06 06:09 22.19802 113.99739 7953 ft 273 kts 321°
2026-05-06 06:09 22.21072 113.98248 7551 ft 276 kts 297°
2026-05-06 06:09 22.21734 113.96319 7153 ft 274 kts 275°
2026-05-06 06:09 22.21723 113.94296 6808 ft 268 kts 265°
2026-05-06 06:10 22.21633 113.92299 6414 ft 264 kts 266°
2026-05-06 06:10 22.21556 113.90354 6088 ft 252 kts 267°
2026-05-06 06:10 22.21866 113.88565 5880 ft 239 kts 295°
2026-05-06 06:10 22.22914 113.87231 5661 ft 234 kts 322°
2026-05-06 06:11 22.24355 113.86478 5495 ft 229 kts 345°
2026-05-06 06:11 22.25903 113.86384 5349 ft 226 kts
2026-05-06 06:11 22.27353 113.86983 5181 ft 224 kts 35°
2026-05-06 06:11 22.28440 113.88178 5043 ft 225 kts 59°
2026-05-06 06:12 22.29081 113.89710 4936 ft 224 kts 77°
2026-05-06 06:12 22.29251 113.91336 4776 ft 213 kts 79°
2026-05-06 06:12 22.29980 113.92648 4596 ft 204 kts 40°
2026-05-06 06:12 22.31118 113.93624 4576 ft 212 kts 32°
2026-05-06 06:13 22.32300 113.94524 4477 ft 206 kts 52°
2026-05-06 06:13 22.32796 113.95885 4484 ft 196 kts 91°
2026-05-06 06:13 22.32571 113.97329 4248 ft 190 kts 104°
2026-05-06 06:13 22.32342 113.98688 4001 ft 183 kts 97°
2026-05-06 06:14 22.32256 114.00023 3760 ft 173 kts 94°
2026-05-06 06:14 22.32200 114.01322 3573 ft 174 kts 93°
2026-05-06 06:14 22.32214 114.02634 3326 ft 173 kts 89°
2026-05-06 06:14 22.32284 114.03876 3085 ft 159 kts 88°
2026-05-06 06:15 22.32359 114.05014 2877 ft 147 kts 87°
2026-05-06 06:15 22.32433 114.06115 2718 ft 149 kts 86°
2026-05-06 06:15 22.32509 114.07236 2534 ft 151 kts 87°
2026-05-06 06:15 22.32585 114.08348 2316 ft 149 kts 87°
2026-05-06 06:16 22.32660 114.09457 2123 ft 146 kts 87°
2026-05-06 06:16 22.32734 114.10547 1902 ft 143 kts 86°
2026-05-06 06:16 22.32808 114.11620 1711 ft 144 kts 86°
2026-05-06 06:16 22.32880 114.12691 1521 ft 142 kts 86°
2026-05-06 06:17 22.32953 114.13762 1339 ft 142 kts 85°
2026-05-06 06:17 22.33027 114.14835 1129 ft 143 kts 85°
2026-05-06 06:17 22.33099 114.15894 933 ft 139 kts 86°
2026-05-06 06:17 22.33169 114.16931 751 ft 140 kts 86°
2026-05-06 06:18 22.33172 114.17976 593 ft 140 kts 99°
2026-05-06 06:18 22.32763 114.18950 305 ft 151 kts 126°
2026-05-06 06:18 22.32074 114.19754 57 ft 140 kts 130°
2026-05-06 06:18 22.31466 114.20443 41 ft 105 kts 133°
2026-05-06 06:19 22.31085 114.20871 41 ft 52 kts 134°
2026-05-06 06:19 22.30947 114.21022 41 ft 14 kts 134°
2026-05-06 06:19 22.30878 114.21113 42 ft 18 kts 120°
2026-05-06 06:19 22.30821 114.21239 42 ft 16 kts 101°
2026-05-06 06:20 22.30838 114.21296 41 ft 4 kts 12°
2026-05-06 06:20 22.30866 114.21284 42 ft 5 kts 318°